SWA3465 KMSP-KMDW

Flight info

Callsign SWA3465
Flight time 1h 11m
Altitude 37000
Route RST1 RST OHHMY ENDEE8
Aircraft B738/M-SDE2E3FGHIRWXY/LB1

Departure

Time 2026-05-07 03:15
Airport Minneapolis–Saint Paul International Airport / Wold–Chamberlain Field (KMSP)

Arrival

Time 2026-05-07 04:26
Airport Chicago Midway International Airport (KMDW)
Time Latitude Longitude Altitude Speed Heading
2026-05-07 02:48 44.87581 -93.22734 824 ft 0 kts 134°
2026-05-07 03:04 44.87583 -93.22738 824 ft 3 kts 133°
2026-05-07 03:04 44.87603 -93.22764 824 ft 4 kts 135°
2026-05-07 03:04 44.87620 -93.22792 823 ft 4 kts 122°
2026-05-07 03:04 44.87631 -93.22825 824 ft 4 kts 94°
2026-05-07 03:05 44.87626 -93.22858 823 ft 3 kts 47°
2026-05-07 03:05 44.87621 -93.22865 820 ft 0 kts 45°
2026-05-07 03:07 44.87625 -93.22860 820 ft 3 kts 45°
2026-05-07 03:07 44.87653 -93.22820 824 ft 9 kts 45°
2026-05-07 03:07 44.87707 -93.22744 821 ft 13 kts 45°
2026-05-07 03:08 44.87779 -93.22643 824 ft 16 kts 45°
2026-05-07 03:08 44.87859 -93.22530 824 ft 17 kts 45°
2026-05-07 03:08 44.87942 -93.22411 824 ft 17 kts 45°
2026-05-07 03:08 44.88023 -93.22290 823 ft 17 kts 47°
2026-05-07 03:09 44.88090 -93.22163 825 ft 16 kts 84°
2026-05-07 03:09 44.88047 -93.22024 824 ft 15 kts 122°
2026-05-07 03:09 44.87992 -93.21898 823 ft 15 kts 121°
2026-05-07 03:09 44.87940 -93.21776 822 ft 14 kts 121°
2026-05-07 03:10 44.87890 -93.21662 823 ft 14 kts 121°
2026-05-07 03:10 44.87842 -93.21550 823 ft 13 kts 121°
2026-05-07 03:10 44.87794 -93.21439 822 ft 14 kts 122°
2026-05-07 03:10 44.87740 -93.21315 821 ft 16 kts 121°
2026-05-07 03:11 44.87677 -93.21169 823 ft 18 kts 121°
2026-05-07 03:11 44.87610 -93.21013 824 ft 18 kts 121°
2026-05-07 03:11 44.87544 -93.20861 824 ft 18 kts 122°
2026-05-07 03:11 44.87474 -93.20720 824 ft 17 kts 136°
2026-05-07 03:12 44.87382 -93.20620 823 ft 17 kts 137°
2026-05-07 03:12 44.87318 -93.20489 822 ft 16 kts 121°
2026-05-07 03:12 44.87301 -93.20368 823 ft 11 kts 50°
2026-05-07 03:12 44.87319 -93.20347 822 ft 0 kts 33°
2026-05-07 03:13 44.87322 -93.20345 823 ft 2 kts 33°
2026-05-07 03:14 44.87351 -93.20319 822 ft 8 kts 31°
2026-05-07 03:14 44.87431 -93.20318 824 ft 16 kts 325°
2026-05-07 03:14 44.87827 -93.21219 824 ft 112 kts 301°
2026-05-07 03:15 44.88320 -93.22356 881 ft 153 kts 302°
2026-05-07 03:15 44.88910 -93.23637 1420 ft 158 kts 304°
2026-05-07 03:15 44.89651 -93.24823 2038 ft 164 kts 305°
2026-05-07 03:15 44.90033 -93.26354 2602 ft 171 kts 273°
2026-05-07 03:16 44.89877 -93.28016 3178 ft 172 kts 261°
2026-05-07 03:16 44.89629 -93.29678 3717 ft 172 kts 260°
2026-05-07 03:16 44.89380 -93.31323 4274 ft 172 kts 260°
2026-05-07 03:16 44.89132 -93.32974 4837 ft 172 kts 258°
2026-05-07 03:17 44.88552 -93.34467 5389 ft 181 kts 230°
2026-05-07 03:17 44.87622 -93.35688 5958 ft 190 kts 221°
2026-05-07 03:17 44.86344 -93.36345 6518 ft 201 kts 188°
2026-05-07 03:17 44.84957 -93.36383 7049 ft 204 kts 183°
2026-05-07 03:18 44.83579 -93.35793 7550 ft 213 kts 155°
2026-05-07 03:18 44.82277 -93.34748 8035 ft 218 kts 152°
2026-05-07 03:18 44.80996 -93.33519 8433 ft 228 kts 149°
2026-05-07 03:18 44.79663 -93.32199 8776 ft 239 kts 149°
2026-05-07 03:19 44.78247 -93.30864 9158 ft 249 kts 153°
2026-05-07 03:19 44.76747 -93.29602 9542 ft 260 kts 154°
2026-05-07 03:19 44.75136 -93.28278 9907 ft 276 kts 154°
2026-05-07 03:19 44.73437 -93.26877 10347 ft 289 kts 154°
2026-05-07 03:20 44.71661 -93.25399 10774 ft 303 kts 153°
2026-05-07 03:20 44.69810 -93.23851 11214 ft 316 kts 153°
2026-05-07 03:20 44.67880 -93.22230 11654 ft 330 kts 153°
2026-05-07 03:20 44.65869 -93.20543 12102 ft 343 kts 153°
2026-05-07 03:21 44.63781 -93.18792 12543 ft 356 kts 152°
2026-05-07 03:21 44.61589 -93.17065 12985 ft 363 kts 156°
2026-05-07 03:21 44.59323 -93.15463 13450 ft 367 kts 157°
2026-05-07 03:21 44.57017 -93.13886 14177 ft 370 kts 158°
2026-05-07 03:22 44.54728 -93.12320 14929 ft 372 kts 158°
2026-05-07 03:22 44.52391 -93.10710 15669 ft 375 kts 158°
2026-05-07 03:22 44.50036 -93.09078 16381 ft 379 kts 158°
2026-05-07 03:22 44.47661 -93.07423 17082 ft 384 kts 158°
2026-05-07 03:23 44.45259 -93.05750 17783 ft 388 kts 158°
2026-05-07 03:23 44.42826 -93.04056 18459 ft 393 kts 158°
2026-05-07 03:23 44.40359 -93.02341 19072 ft 396 kts 158°
2026-05-07 03:23 44.37884 -93.00622 19710 ft 399 kts 158°
2026-05-07 03:24 44.35387 -92.98888 20330 ft 402 kts 158°
2026-05-07 03:24 44.32867 -92.97140 20941 ft 406 kts 158°
2026-05-07 03:24 44.30330 -92.95381 21560 ft 409 kts 158°
2026-05-07 03:24 44.27773 -92.93611 22157 ft 412 kts 158°
2026-05-07 03:25 44.25185 -92.91821 22750 ft 415 kts 158°
2026-05-07 03:25 44.22586 -92.90027 23328 ft 418 kts 158°
2026-05-07 03:25 44.20002 -92.88243 23841 ft 421 kts 158°
2026-05-07 03:25 44.17364 -92.86421 24273 ft 424 kts 158°
2026-05-07 03:26 44.14705 -92.84588 24734 ft 427 kts 158°
2026-05-07 03:26 44.12025 -92.82744 25197 ft 429 kts 159°
2026-05-07 03:26 44.09338 -92.80898 25696 ft 432 kts 159°
2026-05-07 03:26 44.06628 -92.79040 26138 ft 435 kts 159°
2026-05-07 03:27 44.03903 -92.77173 26566 ft 437 kts 159°
2026-05-07 03:27 44.01199 -92.75322 26986 ft 440 kts 159°
2026-05-07 03:27 43.98444 -92.73436 27377 ft 443 kts 159°
2026-05-07 03:27 43.95670 -92.71540 27765 ft 446 kts 159°
2026-05-07 03:28 43.92881 -92.69635 28174 ft 448 kts 159°
2026-05-07 03:28 43.90072 -92.67717 28570 ft 451 kts 159°
2026-05-07 03:28 43.87244 -92.65786 28959 ft 454 kts 159°
2026-05-07 03:28 43.84393 -92.63845 29315 ft 457 kts 160°
2026-05-07 03:29 43.81534 -92.61901 29693 ft 459 kts 160°
2026-05-07 03:29 43.78664 -92.59939 30052 ft 462 kts 159°
2026-05-07 03:29 43.75870 -92.57661 30340 ft 469 kts 152°
2026-05-07 03:29 43.73145 -92.55116 30591 ft 474 kts 151°
2026-05-07 03:30 43.70440 -92.52498 30829 ft 477 kts 150°
2026-05-07 03:30 43.67748 -92.49875 31064 ft 480 kts 150°
2026-05-07 03:30 43.65002 -92.47217 31308 ft 482 kts 150°
2026-05-07 03:30 43.62248 -92.44577 31622 ft 482 kts 151°
2026-05-07 03:31 43.59483 -92.41951 31944 ft 482 kts 152°
2026-05-07 03:31 43.56712 -92.39339 32272 ft 482 kts 152°
2026-05-07 03:31 43.53932 -92.36730 32561 ft 484 kts 152°
2026-05-07 03:31 43.51150 -92.34125 32881 ft 484 kts 152°
2026-05-07 03:32 43.48365 -92.31520 33213 ft 484 kts 152°
2026-05-07 03:32 43.45569 -92.28908 33523 ft 485 kts 152°
2026-05-07 03:32 43.42781 -92.26305 33811 ft 485 kts 152°
2026-05-07 03:32 43.39983 -92.23694 34071 ft 486 kts 153°
2026-05-07 03:33 43.37184 -92.21086 34310 ft 486 kts 153°
2026-05-07 03:33 43.34415 -92.18508 34571 ft 486 kts 153°
2026-05-07 03:33 43.31585 -92.15874 34862 ft 485 kts 153°
2026-05-07 03:33 43.28826 -92.13310 35114 ft 485 kts 153°
2026-05-07 03:34 43.26031 -92.10716 35353 ft 485 kts 153°
2026-05-07 03:34 43.23229 -92.08119 35604 ft 485 kts 153°
2026-05-07 03:34 43.20436 -92.05533 35840 ft 484 kts 153°
2026-05-07 03:34 43.17644 -92.02951 36071 ft 485 kts 153°
2026-05-07 03:35 43.14841 -92.00361 36297 ft 485 kts 153°
2026-05-07 03:35 43.12044 -91.97781 36537 ft 484 kts 153°
2026-05-07 03:35 43.09248 -91.95203 36779 ft 484 kts 153°
2026-05-07 03:35 43.06458 -91.92634 36995 ft 484 kts 153°
2026-05-07 03:36 43.03658 -91.90059 37087 ft 487 kts 153°
2026-05-07 03:36 42.98009 -91.84874 37067 ft 488 kts 153°
2026-05-07 03:37 42.92432 -91.79758 37077 ft 483 kts 153°
2026-05-07 03:37 42.89633 -91.77198 36811 ft 485 kts 154°
2026-05-07 03:37 42.86857 -91.74554 36316 ft 487 kts 149°
2026-05-07 03:37 42.84230 -91.71604 35772 ft 490 kts 146°
2026-05-07 03:38 42.81689 -91.68476 35284 ft 491 kts 144°
2026-05-07 03:38 42.79205 -91.65314 34854 ft 488 kts 144°
2026-05-07 03:38 42.76761 -91.62214 34433 ft 485 kts 144°
2026-05-07 03:38 42.74278 -91.59115 33972 ft 483 kts 145°
2026-05-07 03:39 42.71793 -91.56062 33482 ft 479 kts 145°
2026-05-07 03:39 42.69318 -91.53057 33041 ft 475 kts 146°
2026-05-07 03:39 42.66857 -91.50091 32617 ft 471 kts 146°
2026-05-07 03:39 42.64405 -91.47148 32201 ft 467 kts 146°
2026-05-07 03:40 42.61980 -91.44242 31789 ft 463 kts 146°
2026-05-07 03:40 42.59599 -91.41391 31364 ft 459 kts 146°
2026-05-07 03:40 42.57213 -91.38534 30979 ft 455 kts 146°
2026-05-07 03:40 42.54857 -91.35707 30594 ft 451 kts 146°
2026-05-07 03:41 42.52513 -91.32907 30210 ft 447 kts 146°
2026-05-07 03:41 42.50179 -91.30124 29748 ft 444 kts 146°
2026-05-07 03:41 42.47873 -91.27374 29334 ft 439 kts 146°
2026-05-07 03:41 42.45590 -91.24652 28927 ft 434 kts 146°
2026-05-07 03:42 42.43338 -91.21971 28540 ft 429 kts 146°
2026-05-07 03:42 42.41107 -91.19316 28143 ft 425 kts 146°
2026-05-07 03:42 42.38895 -91.16688 27730 ft 421 kts 146°
2026-05-07 03:42 42.36708 -91.14091 27374 ft 416 kts 146°
2026-05-07 03:43 42.34562 -91.11546 26981 ft 413 kts 146°
2026-05-07 03:43 42.32407 -91.08993 26614 ft 410 kts 146°
2026-05-07 03:43 42.30267 -91.06459 26233 ft 407 kts 145°
2026-05-07 03:43 42.28146 -91.03943 25866 ft 405 kts 145°
2026-05-07 03:44 42.26031 -91.01441 25499 ft 403 kts 145°
2026-05-07 03:44 42.23919 -90.98956 25134 ft 402 kts 146°
2026-05-07 03:44 42.21809 -90.96474 24768 ft 402 kts 145°
2026-05-07 03:44 42.19702 -90.93992 24387 ft 401 kts 145°
2026-05-07 03:45 42.17606 -90.91522 24108 ft 398 kts 145°
2026-05-07 03:45 42.15531 -90.89080 24094 ft 394 kts 145°
2026-05-07 03:45 42.13459 -90.86650 24086 ft 396 kts 145°
2026-05-07 03:45 42.11393 -90.84233 24093 ft 400 kts 145°
2026-05-07 03:46 42.09294 -90.81772 24085 ft 399 kts 145°
2026-05-07 03:46 42.07204 -90.79322 24074 ft 398 kts 145°
2026-05-07 03:46 42.05116 -90.76877 24077 ft 397 kts 145°
2026-05-07 03:46 42.03028 -90.74436 24080 ft 397 kts 145°
2026-05-07 03:47 42.00943 -90.72003 23990 ft 399 kts 145°
2026-05-07 03:47 41.98841 -90.69555 23773 ft 399 kts 145°
2026-05-07 03:47 41.96760 -90.67127 23540 ft 394 kts 145°
2026-05-07 03:47 41.95367 -90.65502 23384 ft 391 kts 145°
2026-05-07 03:48 41.93309 -90.63106 23189 ft 391 kts 145°
2026-05-07 03:48 41.91282 -90.60750 22996 ft 390 kts 145°
2026-05-07 03:48 41.89232 -90.58368 22810 ft 389 kts 145°
2026-05-07 03:48 41.87182 -90.55983 22612 ft 389 kts 144°
2026-05-07 03:49 41.85136 -90.53609 22420 ft 389 kts 145°
2026-05-07 03:49 41.83088 -90.51247 22225 ft 388 kts 145°
2026-05-07 03:49 41.81033 -90.48880 22035 ft 388 kts 144°
2026-05-07 03:49 41.78989 -90.46526 21845 ft 387 kts 144°
2026-05-07 03:50 41.76949 -90.44176 21622 ft 387 kts 146°
2026-05-07 03:50 41.74913 -90.41832 21456 ft 386 kts 146°
2026-05-07 03:50 41.72896 -90.39511 21272 ft 387 kts 145°
2026-05-07 03:50 41.70857 -90.37167 21079 ft 387 kts 146°
2026-05-07 03:51 41.68814 -90.34821 20890 ft 387 kts 146°
2026-05-07 03:51 41.66768 -90.32473 20702 ft 387 kts 146°
2026-05-07 03:51 41.64727 -90.30133 20523 ft 385 kts 145°
2026-05-07 03:51 41.62712 -90.27811 20314 ft 380 kts 145°
2026-05-07 03:52 41.60714 -90.25505 20125 ft 378 kts 144°
2026-05-07 03:52 41.58722 -90.23209 19937 ft 379 kts 144°
2026-05-07 03:52 41.56720 -90.20904 19758 ft 378 kts 144°
2026-05-07 03:52 41.54728 -90.18614 19546 ft 378 kts 144°
2026-05-07 03:53 41.52734 -90.16323 19369 ft 377 kts 144°
2026-05-07 03:53 41.50748 -90.14044 19187 ft 376 kts 144°
2026-05-07 03:53 41.48769 -90.11775 19001 ft 375 kts 144°
2026-05-07 03:53 41.46792 -90.09515 18818 ft 374 kts 144°
2026-05-07 03:54 41.44849 -90.07296 18633 ft 372 kts 144°
2026-05-07 03:54 41.42866 -90.05026 18447 ft 370 kts 143°
2026-05-07 03:54 41.40918 -90.02798 18247 ft 368 kts 143°
2026-05-07 03:54 41.39003 -90.00611 18026 ft 366 kts 143°
2026-05-07 03:55 41.37070 -89.98405 17808 ft 365 kts 144°
2026-05-07 03:55 41.35142 -89.96220 17617 ft 363 kts 144°
2026-05-07 03:55 41.33227 -89.94056 17415 ft 360 kts 144°
2026-05-07 03:55 41.31319 -89.91903 17241 ft 359 kts 144°
2026-05-07 03:56 41.29420 -89.89760 17074 ft 357 kts 144°
2026-05-07 03:56 41.27525 -89.87622 16906 ft 356 kts 144°
2026-05-07 03:56 41.25636 -89.85492 16722 ft 356 kts 144°
2026-05-07 03:56 41.23744 -89.83362 16550 ft 356 kts 144°
2026-05-07 03:57 41.21857 -89.81232 16367 ft 356 kts 144°
2026-05-07 03:57 41.19980 -89.79092 16201 ft 356 kts 144°
2026-05-07 03:57 41.18100 -89.76945 16013 ft 356 kts 144°
2026-05-07 03:57 41.16224 -89.74791 15847 ft 357 kts 141°
2026-05-07 03:58 41.14722 -89.72141 15636 ft 365 kts 115°
2026-05-07 03:58 41.14079 -89.68899 15491 ft 364 kts 92°
2026-05-07 03:58 41.14181 -89.65554 15335 ft 362 kts 83°
2026-05-07 03:58 41.14416 -89.62271 15145 ft 362 kts 82°
2026-05-07 03:59 41.14667 -89.58951 14961 ft 362 kts 82°
2026-05-07 03:59 41.14908 -89.55628 14777 ft 361 kts 82°
2026-05-07 03:59 41.15134 -89.52316 14597 ft 360 kts 83°
2026-05-07 03:59 41.15348 -89.49017 14418 ft 358 kts 83°
2026-05-07 04:00 41.15557 -89.45725 14236 ft 357 kts 83°
2026-05-07 04:00 41.15762 -89.42447 14060 ft 355 kts 83°
2026-05-07 04:00 41.15971 -89.39179 13786 ft 356 kts 82°
2026-05-07 04:00 41.16187 -89.35910 13484 ft 356 kts 82°
2026-05-07 04:01 41.16403 -89.32645 13183 ft 353 kts 82°
2026-05-07 04:01 41.16616 -89.29422 12897 ft 348 kts 82°
2026-05-07 04:01 41.16825 -89.26236 12615 ft 344 kts 82°
2026-05-07 04:01 41.17030 -89.23090 12336 ft 340 kts 82°
2026-05-07 04:02 41.17233 -89.19984 12069 ft 337 kts 82°
2026-05-07 04:02 41.17430 -89.16933 11812 ft 335 kts 82°
2026-05-07 04:02 41.17627 -89.13858 11547 ft 333 kts 82°
2026-05-07 04:02 41.17965 -89.10839 11272 ft 328 kts 72°
2026-05-07 04:03 41.18629 -89.07956 11027 ft 324 kts 67°
2026-05-07 04:03 41.19343 -89.05128 10760 ft 323 kts 68°
2026-05-07 04:03 41.20026 -89.02301 10502 ft 320 kts 68°
2026-05-07 04:03 41.20679 -88.99486 10243 ft 317 kts 69°
2026-05-07 04:04 41.21318 -88.96705 9993 ft 313 kts 67°
2026-05-07 04:04 41.22113 -88.94128 9978 ft 298 kts 60°
2026-05-07 04:04 41.23014 -88.91666 9681 ft 295 kts 58°
2026-05-07 04:04 41.23916 -88.89245 9505 ft 289 kts 59°
2026-05-07 04:05 41.24790 -88.86847 9339 ft 286 kts 59°
2026-05-07 04:05 41.25643 -88.84464 9186 ft 285 kts 60°
2026-05-07 04:05 41.26488 -88.82078 9029 ft 285 kts 60°
2026-05-07 04:05 41.27333 -88.79680 8864 ft 285 kts 60°
2026-05-07 04:06 41.28161 -88.77325 8714 ft 285 kts 60°
2026-05-07 04:06 41.29001 -88.74936 8554 ft 285 kts 60°
2026-05-07 04:06 41.29840 -88.72545 8400 ft 285 kts 60°
2026-05-07 04:06 41.30677 -88.70159 8250 ft 285 kts 60°
2026-05-07 04:07 41.31515 -88.67768 8087 ft 285 kts 60°
2026-05-07 04:07 41.32352 -88.65378 7934 ft 285 kts 60°
2026-05-07 04:07 41.33188 -88.62985 7761 ft 285 kts 60°
2026-05-07 04:07 41.34023 -88.60597 7630 ft 285 kts 60°
2026-05-07 04:08 41.34861 -88.58211 7476 ft 284 kts 60°
2026-05-07 04:08 41.35696 -88.55825 7316 ft 283 kts 60°
2026-05-07 04:08 41.36515 -88.53478 7164 ft 283 kts 60°
2026-05-07 04:08 41.37348 -88.51112 7010 ft 281 kts 58°
2026-05-07 04:09 41.38404 -88.48982 6915 ft 272 kts 46°
2026-05-07 04:09 41.39601 -88.47055 6827 ft 268 kts 43°
2026-05-07 04:09 41.40801 -88.45170 6737 ft 266 kts 44°
2026-05-07 04:09 41.41987 -88.43291 6652 ft 265 kts 44°
2026-05-07 04:10 41.43167 -88.41397 6575 ft 266 kts 44°
2026-05-07 04:10 41.44353 -88.39473 6489 ft 270 kts 45°
2026-05-07 04:10 41.45543 -88.37526 6398 ft 271 kts 45°
2026-05-07 04:10 41.46734 -88.35569 6298 ft 272 kts 45°
2026-05-07 04:11 41.47906 -88.33637 6204 ft 271 kts 45°
2026-05-07 04:11 41.49094 -88.31679 6097 ft 271 kts 45°
2026-05-07 04:11 41.50257 -88.29709 6015 ft 270 kts 52°
2026-05-07 04:11 41.50885 -88.27345 6000 ft 274 kts 78°
2026-05-07 04:12 41.51126 -88.24821 5984 ft 276 kts 79°
2026-05-07 04:12 41.51351 -88.22255 5945 ft 280 kts 80°
2026-05-07 04:12 41.51576 -88.19671 5901 ft 280 kts 80°
2026-05-07 04:12 41.51801 -88.17091 5864 ft 279 kts 80°
2026-05-07 04:13 41.52027 -88.14558 5829 ft 278 kts 79°
2026-05-07 04:13 41.52257 -88.12006 5792 ft 276 kts 79°
2026-05-07 04:13 41.52487 -88.09463 5764 ft 275 kts 79°
2026-05-07 04:13 41.52714 -88.06929 5732 ft 274 kts 79°
2026-05-07 04:14 41.52941 -88.04404 5699 ft 274 kts 79°
2026-05-07 04:14 41.53167 -88.01881 5669 ft 273 kts 79°
2026-05-07 04:14 41.53392 -87.99353 5635 ft 273 kts 79°
2026-05-07 04:14 41.53616 -87.96826 5603 ft 274 kts 79°
2026-05-07 04:15 41.53841 -87.94301 5571 ft 274 kts 79°
2026-05-07 04:15 41.54067 -87.91767 5538 ft 275 kts 79°
2026-05-07 04:15 41.54290 -87.89260 5502 ft 275 kts 79°
2026-05-07 04:15 41.54516 -87.86723 5477 ft 276 kts 80°
2026-05-07 04:16 41.54740 -87.84179 5438 ft 276 kts 80°
2026-05-07 04:16 41.54962 -87.81635 5406 ft 276 kts 80°
2026-05-07 04:16 41.55185 -87.79092 5368 ft 275 kts 80°
2026-05-07 04:16 41.55407 -87.76559 5336 ft 275 kts 80°
2026-05-07 04:17 41.55629 -87.74023 5307 ft 274 kts 80°
2026-05-07 04:17 41.55851 -87.71496 5274 ft 274 kts 80°
2026-05-07 04:17 41.56055 -87.68965 5250 ft 273 kts 81°
2026-05-07 04:17 41.56233 -87.66440 5216 ft 273 kts 82°
2026-05-07 04:18 41.56396 -87.63944 5119 ft 274 kts 82°
2026-05-07 04:18 41.56545 -87.61409 5041 ft 273 kts 83°
2026-05-07 04:18 41.56692 -87.58895 5016 ft 269 kts 83°
2026-05-07 04:18 41.56842 -87.56417 5003 ft 266 kts 83°
2026-05-07 04:19 41.56988 -87.53960 5013 ft 265 kts 83°
2026-05-07 04:19 41.57147 -87.51490 5032 ft 268 kts 82°
2026-05-07 04:19 41.57572 -87.49078 4998 ft 266 kts 56°
2026-05-07 04:19 41.58861 -87.47451 4959 ft 253 kts 21°
2026-05-07 04:20 41.60529 -87.46878 4792 ft 244 kts
2026-05-07 04:20 41.62136 -87.47172 4613 ft 227 kts 328°
2026-05-07 04:20 41.63101 -87.48642 4451 ft 210 kts 288°
2026-05-07 04:21 41.63779 -87.52233 4102 ft 194 kts 290°
2026-05-07 04:21 41.64339 -87.53881 3889 ft 194 kts 299°
2026-05-07 04:21 41.65057 -87.55394 3675 ft 191 kts 305°
2026-05-07 04:21 41.65857 -87.56757 3471 ft 182 kts 309°
2026-05-07 04:22 41.66666 -87.58031 3252 ft 178 kts 307°
2026-05-07 04:22 41.67430 -87.59316 3033 ft 175 kts 308°
2026-05-07 04:22 41.68216 -87.60550 2838 ft 174 kts 310°
2026-05-07 04:22 41.69010 -87.61739 2653 ft 166 kts 311°
2026-05-07 04:23 41.69758 -87.62829 2420 ft 154 kts 312°
2026-05-07 04:23 41.70462 -87.63840 2189 ft 145 kts 312°
2026-05-07 04:23 41.71149 -87.64819 1988 ft 146 kts 312°
2026-05-07 04:23 41.71841 -87.65809 1805 ft 144 kts 312°
2026-05-07 04:24 41.72550 -87.66801 1774 ft 149 kts 312°
2026-05-07 04:24 41.73244 -87.67770 1710 ft 137 kts 312°
2026-05-07 04:24 41.73885 -87.68676 1711 ft 136 kts 311°
2026-05-07 04:24 41.74546 -87.69604 1688 ft 140 kts 313°
2026-05-07 04:25 41.75221 -87.70556 1473 ft 140 kts 313°
2026-05-07 04:25 41.75892 -87.71505 1275 ft 140 kts 313°
2026-05-07 04:25 41.76562 -87.72451 1083 ft 141 kts 313°
2026-05-07 04:25 41.77238 -87.73409 893 ft 141 kts 313°
2026-05-07 04:26 41.77913 -87.74365 678 ft 141 kts 313°
2026-05-07 04:26 41.78527 -87.75222 628 ft 87 kts 314°
2026-05-07 04:26 41.78820 -87.75633 628 ft 55 kts 314°
2026-05-07 04:26 41.79049 -87.75810 638 ft 19 kts 344°
2026-05-07 04:27 41.79121 -87.75781 637 ft 10 kts 64°
2026-05-07 04:27 41.79124 -87.75689 628 ft 10 kts 100°
2026-05-07 04:27 41.79088 -87.75610 628 ft 11 kts 134°
2026-05-07 04:27 41.79026 -87.75523 635 ft 15 kts 134°
2026-05-07 04:28 41.78947 -87.75410 628 ft 17 kts 134°
2026-05-07 04:28 41.78865 -87.75296 627 ft 17 kts 133°
2026-05-07 04:28 41.78787 -87.75185 627 ft 16 kts 133°
2026-05-07 04:28 41.78711 -87.75079 627 ft 15 kts 134°
2026-05-07 04:29 41.78638 -87.74978 631 ft 15 kts 133°
2026-05-07 04:29 41.78598 -87.74869 631 ft 14 kts 59°
2026-05-07 04:29 41.78672 -87.74791 632 ft 14 kts 18°
2026-05-07 04:29 41.78743 -87.74730 628 ft 10 kts 44°
2026-05-07 04:30 41.78767 -87.74688 632 ft 0 kts 79°
2026-05-07 04:30 41.78765 -87.74680 635 ft 3 kts 111°
2026-05-07 04:30 41.78743 -87.74645 632 ft 6 kts 133°
2026-05-07 04:31 41.78716 -87.74610 628 ft 4 kts 135°
2026-05-07 04:31 41.78706 -87.74596 628 ft 2 kts 135°
2026-05-07 04:31 41.78703 -87.74593 628 ft 0 kts 135°